Regional Weather Roundup
Issued by NWS

Home | Current Version | Previous Version | Graphics & Text | Print | Product List | Glossary On
Versions: 1 2 3 4 5 6 7 8 9 10 11 12 13 14 15 16 17 18 19 20 21 22 23 24 25 26 27 28 29 30 31 32 33 34 35 36 37 38 39 40 41 42 43 44 45 46 47 48 49 50
000
ASUS44 KMEG 251310
RWRTN
TENNESSEE HOURLY STATE WEATHER ROUNDUP
NATIONAL WEATHER SERVICE MEMPHIS TN
800 AM CDT SAT APR 25 2015

TNZ002-004-019-021-049-052-054-088>092-251400-
WEST TENNESSEE

CITY           SKY/WX    TMP DP  RH WIND       PRES   REMARKS
MEMPHIS INTL   CLOUDY    64  60  87 S14       29.68S
NWS MEMPHIS      N/A     63 N/A N/A MISG        N/A
JACKSON        CLOUDY    63  59  87 S9        29.67S
DYERSBURG      MOSUNNY   61  48  63 S8        29.65F
UNION CITY     CLOUDY    57  32  38 S5        29.64S
PARIS          CLOUDY    57  57 100 S8        29.67F
LEXINGTON      SUNNY     61  59  94 S8        29.67F
SAVANNAH       SUNNY     63  32  31 S8        29.71S
$$

TNZ008-025-027-028-033-062-065-066-251400-
NORTH MIDDLE TENNESSEE

CITY           SKY/WX    TMP DP  RH WIND       PRES   REMARKS
NASHVILLE      CLOUDY    61  58  90 CALM      29.71S
CLARKSVILLE    CLOUDY    61  58  90 SE5       29.68F
SMYRNA         CLOUDY    60  58  93 S3        29.72R
COOKEVILLE     SUNNY     61  55  82 S7        29.72R
CROSSVILLE     CLOUDY    55  52  89 S7G17     29.75R
$$

TNZ061-075-076-078-094-096-097-251400-
SOUTH MIDDLE TENNESSEE

CITY           SKY/WX    TMP DP  RH WIND       PRES   REMARKS
FAYETTEVILLE   SUNNY     57  55  94 S14       29.72F
TULLAHOMA      MOSUNNY   57  57 100 S7        29.72S
WINCHESTER     SUNNY     59  59 100 S15       29.73S
MCMINNVILLE    MOSUNNY   61  61 100 SW3       29.70S
COLUMBIA       MOSUNNY   63  32  31 S9        29.68R
SHELBYVILLE    MOSUNNY   61  59  94 S7        29.71R
$$

TNZ017-018-042-046-047-251400-
NORTHEAST TENNESSEE

CITY           SKY/WX    TMP DP  RH WIND       PRES   REMARKS
TRI CITIES     CLOUDY    53  45  74 CALM      29.86F
ELIZABETHTON   PTSUNNY   50  41  71 CALM      29.86F
$$

TNZ012-013-036-069-073-074-251400-
CENTRAL EAST TENNESSEE

CITY           SKY/WX    TMP DP  RH WIND       PRES   REMARKS
KNOXVILLE      CLOUDY    53  48  83 E10G22    29.74F
OAK RIDGE      CLOUDY    53  51  93 CALM      29.78R
GATLINBURG     PTSUNNY   48  46  93 E6        29.78F
MORRISTOWN     PTSUNNY   48  48 100 SE13      29.77F
$$

TNZ083-085-099-251400-
SOUTHEAST TENNESSEE

CITY           SKY/WX    TMP DP  RH WIND       PRES   REMARKS
CHATTANOOGA    CLOUDY    55  53  93 SW5       29.78F FOG
$$

SKY/WX REPORTED AS FAIR MEANS FEW OR NO CLOUDS BELOW
12 THOUSAND FEET.




USA.gov is the U.S. government's official web portal to all federal, state and local government web resources and services.